Weather History for Rutland, VT

Change the Weather History Date:

Wednesday, September 25, 2013

  Actual Average Record
Temperature  
Mean Temperature 51 °F -  
Max Temperature 64 °F - 86 °F (1970)
Min Temperature 37 °F - 27 °F (1950)
Degree Days  
Heating Degree Days 14    
Month to date heating degree days 208  
Since 1 July heating degree days 279  
Cooling Degree Days 0    
Month to date cooling degree days 39  
Year to date cooling degree days 449  
Growing Degree Days 2 (Base 50)    
Moisture  
Dew Point 44 °F    
Average Humidity 76    
Maximum Humidity 100    
Minimum Humidity 51    
Precipitation  
Precipitation 0.00 in - 1.89 in (2001)
Month to date precipitation 3.03  
Year to date precipitation 19.90  
Sea Level Pressure  
Sea Level Pressure 29.95 in    
Wind  
Wind Speed 6 mph (NNE)    
Max Wind Speed 14 mph    
Max Gust Speed 21 mph    
Visibility 10 miles    
Events      
T = Trace of Precipitation, MM = Missing Value Source: NWS Daily Summary

Daily Weather History Graph

Daily Weather History Graph

Search for Another Location

Airport:

Trip Planner

Search our weather history database for the weather conditions in past years. The results will help you decide how hot, cold, wet, or windy it might be!

Date:

Astronomy

Sep. 25, 2013 Rise Set
Actual Time 6:42 AM EDT 6:43 PM EDT
Civil Twilight 6:14 AM EDT 7:11 PM EDT
Nautical Twilight 5:40 AM EDT 7:45 PM EDT
Astronomical Twilight 5:06 AM EDT 8:19 PM EDT
Moon 10:38 PM EDT (9/25) 12:55 PM EDT (9/25)
Length of Visible Light 12h 57m
Length of Day
12h 00m
Waning Gibbous, 64% of the Moon is Illuminated
Sep 25
Waning Gibbous
Sep 26
Last Quarter
Oct 4
New
Oct 11
First Quarter
Oct 18
Full

Hourly Weather History & Observations

Time (EDT) Temp. Windchill Dew Point Humidity Pressure Visibility Wind Dir Wind Speed Gust Speed Precip Events Conditions
12:15 AM 44.6 °F 41.4 °F 42.8 °F 93% 29.95 in 10.0 mi SE 5.8 mph - N/A   Clear
12:35 AM 46.4 °F 44.3 °F 42.8 °F 87% 29.95 in 10.0 mi SSE 4.6 mph - N/A   Clear
12:55 AM 44.6 °F 43.1 °F 42.8 °F 93% 29.95 in 10.0 mi SE 3.5 mph - N/A   Clear
1:15 AM 44.6 °F 42.2 °F 42.8 °F 93% 29.95 in 10.0 mi SE 4.6 mph - N/A   Clear
1:35 AM 44.6 °F - 41.0 °F 87% 29.95 in 10.0 mi Calm Calm - N/A   Clear
1:55 AM 42.8 °F 40.1 °F 41.0 °F 93% 29.95 in 10.0 mi SE 4.6 mph - N/A   Clear
2:15 AM 42.8 °F 40.1 °F 39.2 °F 87% 29.95 in 10.0 mi SE 4.6 mph - N/A   Clear
2:35 AM 42.8 °F 41.1 °F 39.2 °F 87% 29.95 in 10.0 mi SSE 3.5 mph - N/A   Clear
2:55 AM 42.8 °F 39.3 °F 39.2 °F 87% 29.95 in 10.0 mi ESE 5.8 mph - N/A   Clear
3:15 AM 42.8 °F 39.3 °F 39.2 °F 87% 29.95 in 10.0 mi SE 5.8 mph - N/A   Clear
3:35 AM 39.2 °F 35.9 °F 39.2 °F 100% 29.95 in 10.0 mi SE 4.6 mph - N/A   Clear
3:55 AM 39.2 °F 35.9 °F 39.2 °F 100% 29.95 in 10.0 mi SE 4.6 mph - N/A   Clear
4:15 AM 41.0 °F 38.0 °F 39.2 °F 93% 29.95 in 10.0 mi SE 4.6 mph - N/A   Clear
4:35 AM 41.0 °F 37.1 °F 37.4 °F 87% 29.96 in 10.0 mi SSE 5.8 mph - N/A   Clear
4:55 AM 41.0 °F 36.4 °F 37.4 °F 87% 29.95 in 10.0 mi SE 6.9 mph - N/A   Clear
5:15 AM 39.2 °F 35.9 °F 37.4 °F 93% 29.95 in 10.0 mi SE 4.6 mph - N/A   Clear
5:35 AM 39.2 °F 35.9 °F 37.4 °F 93% 29.96 in 10.0 mi ESE 4.6 mph - N/A   Clear
5:55 AM 39.2 °F 35.0 °F 37.4 °F 93% 29.96 in 10.0 mi SE 5.8 mph - N/A   Clear
6:15 AM 39.2 °F 35.9 °F 37.4 °F 93% 29.95 in 10.0 mi SE 4.6 mph - N/A   Clear
6:35 AM 39.2 °F 37.0 °F 37.4 °F 93% 29.95 in 10.0 mi SE 3.5 mph - N/A   Clear
6:55 AM 39.2 °F 35.0 °F 37.4 °F 93% 29.96 in 10.0 mi SE 5.8 mph - N/A   Mostly Cloudy
7:15 AM 39.2 °F 34.2 °F 37.4 °F 93% 29.95 in 10.0 mi SE 6.9 mph - N/A   Mostly Cloudy
7:35 AM 39.2 °F 35.9 °F 37.4 °F 93% 29.96 in 10.0 mi SE 4.6 mph - N/A   Clear
7:55 AM 39.2 °F 37.0 °F 37.4 °F 93% 29.96 in 10.0 mi SSE 3.5 mph - N/A   Clear
8:15 AM 42.8 °F - 39.2 °F 87% 29.96 in 2.0 mi Calm Calm - N/A   Clear
8:35 AM 44.6 °F - 39.2 °F 81% 29.96 in 10.0 mi Calm Calm - N/A   Clear
8:55 AM 46.4 °F - 42.8 °F 87% 29.96 in 10.0 mi Calm Calm - N/A   Clear
9:15 AM 48.2 °F - 42.8 °F 82% 29.97 in 10.0 mi Calm Calm - N/A   Clear
9:35 AM 50.0 °F - 44.6 °F 82% 29.97 in 10.0 mi Calm Calm - N/A   Clear
9:55 AM 51.8 °F - 44.6 °F 76% 29.97 in 10.0 mi North 3.5 mph - N/A   Clear
10:15 AM 51.8 °F - 44.6 °F 76% 29.97 in 10.0 mi North 4.6 mph - N/A   Clear
10:35 AM 53.6 °F - 46.4 °F 77% 29.96 in 10.0 mi North 5.8 mph - N/A   Clear
10:55 AM 55.4 °F - 46.4 °F 72% 29.96 in 10.0 mi North 5.8 mph - N/A   Clear
11:15 AM 55.4 °F - 46.4 °F 72% 29.96 in 10.0 mi NNW 3.5 mph - N/A   Clear
11:35 AM 57.2 °F - 44.6 °F 63% 29.96 in 10.0 mi NNW 6.9 mph - N/A   Clear
11:55 AM 57.2 °F - 44.6 °F 63% 29.95 in 10.0 mi NNW 8.1 mph - N/A   Clear
12:15 PM 60.8 °F - 44.6 °F 55% 29.94 in 10.0 mi NW 13.8 mph 17.3 mph N/A   Clear
12:35 PM 60.8 °F - 44.6 °F 55% 29.94 in 10.0 mi NNW 12.7 mph 17.3 mph N/A   Clear
12:55 PM 60.8 °F - 42.8 °F 52% 29.94 in 10.0 mi NNW 13.8 mph 20.7 mph N/A   Clear
1:15 PM 62.6 °F - 44.6 °F 52% 29.93 in 10.0 mi NW 9.2 mph 17.3 mph N/A   Clear
1:35 PM 62.6 °F - 44.6 °F 52% 29.92 in 10.0 mi North 13.8 mph 18.4 mph N/A   Clear
1:55 PM 62.6 °F - 46.4 °F 55% 29.92 in 10.0 mi NW 9.2 mph 17.3 mph N/A   Clear
2:15 PM 62.6 °F - 46.4 °F 55% 29.92 in 10.0 mi NNW 9.2 mph - N/A   Clear
2:35 PM 62.6 °F - 46.4 °F 55% 29.92 in 10.0 mi NW 9.2 mph - N/A   Clear
2:55 PM 62.6 °F - 46.4 °F 55% 29.92 in 10.0 mi WNW 10.4 mph - N/A   Clear
3:15 PM 64.4 °F - 46.4 °F 52% 29.92 in 10.0 mi NW 6.9 mph - N/A   Clear
3:35 PM 64.4 °F - 46.4 °F 52% 29.91 in 10.0 mi WNW 11.5 mph 17.3 mph N/A   Clear
3:55 PM 64.4 °F - 46.4 °F 52% 29.91 in 10.0 mi NW 9.2 mph 16.1 mph N/A   Partly Cloudy
4:15 PM 64.4 °F - 46.4 °F 52% 29.91 in 10.0 mi NW 10.4 mph 17.3 mph N/A   Partly Cloudy
4:35 PM 64.4 °F - 46.4 °F 52% 29.91 in 10.0 mi NW 10.4 mph - N/A   Clear
4:55 PM 64.4 °F - 48.2 °F 56% 29.91 in 10.0 mi NW 11.5 mph - N/A   Clear
5:15 PM 64.4 °F - 48.2 °F 56% 29.92 in 10.0 mi NW 10.4 mph 16.1 mph N/A   Clear
5:35 PM 62.6 °F - 48.2 °F 59% 29.93 in 10.0 mi NW 5.8 mph - N/A   Clear
5:55 PM 62.6 °F - 48.2 °F 59% 29.93 in 10.0 mi NNW 5.8 mph - N/A   Clear
6:15 PM 60.8 °F - 48.2 °F 63% 29.93 in 10.0 mi NW 5.8 mph - N/A   Clear
6:35 PM 59.0 °F - 46.4 °F 63% 29.93 in 10.0 mi NW 5.8 mph - N/A   Clear
6:55 PM 57.2 °F - 46.4 °F 67% 29.94 in 10.0 mi NNW 6.9 mph - N/A   Clear
7:15 PM 57.2 °F - 48.2 °F 72% 29.95 in 10.0 mi NNW 4.6 mph - N/A   Clear
7:35 PM 55.4 °F - 48.2 °F 77% 29.96 in 10.0 mi Calm Calm - N/A   Clear
7:55 PM 55.4 °F - 48.2 °F 77% 29.96 in 10.0 mi NW 3.5 mph - N/A   Partly Cloudy
8:15 PM 53.6 °F - 48.2 °F 82% 29.97 in 10.0 mi Calm Calm - N/A   Clear
8:35 PM 51.8 °F - 48.2 °F 88% 29.97 in 10.0 mi Calm Calm - N/A   Partly Cloudy
8:55 PM 51.8 °F - 48.2 °F 88% 29.97 in 10.0 mi Calm Calm - N/A   Mostly Cloudy
9:15 PM 51.8 °F - 46.4 °F 82% 29.98 in 10.0 mi Calm Calm - N/A   Overcast
9:35 PM 53.6 °F - 46.4 °F 77% 29.98 in 10.0 mi SE 3.5 mph - N/A   Overcast
9:55 PM 53.6 °F - 48.2 °F 82% 29.99 in 10.0 mi NNE 4.6 mph - N/A   Overcast
10:15 PM 51.8 °F - 46.4 °F 82% 29.99 in 10.0 mi SE 3.5 mph - N/A   Overcast
10:35 PM 50.0 °F - 46.4 °F 87% 29.99 in 10.0 mi Calm Calm - N/A   Scattered Clouds
10:55 PM 50.0 °F - 46.4 °F 87% 30.00 in 10.0 mi ENE 3.5 mph - N/A   Mostly Cloudy
11:15 PM 50.0 °F - 46.4 °F 87% 30.00 in 10.0 mi Calm Calm - N/A   Scattered Clouds
11:35 PM 50.0 °F - 46.4 °F 87% 30.00 in 10.0 mi Calm Calm - N/A   Mostly Cloudy
11:55 PM 48.2 °F - 46.4 °F 93% 30.01 in 10.0 mi Calm Calm - N/A   Overcast